Location: *
(53.9002°N, 27.5624°E)
Time: 00:55:57
(UTC+00:00)

Cosmos 1892 - Pass Details

Date: 12 November 2019
Orbit: 505 x 525 km, 82.5° (Epoch: 14 December)

Event Time Altitude Azimuth Distance (km) Brightness Sun altitude
Rises 15:02:37 0° 344° (NNW) 2,622 6.2 -7.0°
Reaches altitude 10° 15:04:48 10° 338° (NNW) 1,732 5.4 -7.3°
Maximum altitude 15:08:25 44° 266° (W) 715 4.0 -7.8°
Drops below altitude 10° 15:12:00 10° 193° (SSW) 1,721 5.8 -8.3°
Sets 15:14:10 0° 187° (S) 2,603 6.6 -8.6°
